Weather History for Merced, CA

Change the Weather History Date:

Friday, January 4, 2013

  Actual Average Record
Temperature  
Mean Temperature 41 °F 44 °F  
Max Temperature 54 °F 52 °F 66 °F (2006)
Min Temperature 28 °F 36 °F 26 °F (2001)
Degree Days  
Heating Degree Days 24    
Month to date heating degree days 92  
Since 1 July heating degree days 928  
Cooling Degree Days 0    
Month to date cooling degree days 0  
Year to date cooling degree days 0  
Moisture  
Dew Point 33 °F    
Average Humidity 80    
Maximum Humidity 100    
Minimum Humidity 59    
Precipitation  
Precipitation 0.00 in 0.10 in 0.90 in (2008)
Month to date precipitation 0.00 0.44  
Year to date precipitation 0.00 0.44  
Since 1 July precipitation 4.83 4.26  
Snow  
Snow 0.00 in - - ()
Month to date snowfall 0.0  
Since 1 July snowfall 0.0  
Snow Depth 0.00 in    
Sea Level Pressure  
Sea Level Pressure 30.27 in    
Wind  
Wind Speed 1 mph (SE)    
Max Wind Speed 7 mph    
Max Gust Speed -    
Visibility 2 miles    
Events Fog    
T = Trace of Precipitation, MM = Missing Value Source: NWS Daily Summary

Daily Weather History Graph

Daily Weather History Graph

Search for Another Location

Airport:

Trip Planner

Search our weather history database for the weather conditions in past years. The results will help you decide how hot, cold, wet, or windy it might be!

Date:

Astronomy

Jan. 04, 2013 Rise Set
Actual Time 7:16 AM PST 4:58 PM PST
Civil Twilight 6:47 AM PST 5:27 PM PST
Nautical Twilight 6:15 AM PST 5:59 PM PST
Astronomical Twilight 5:43 AM PST 6:31 PM PST
Moon No Moon Rise 11:12 AM PST (1/4)
Length of Visible Light 10h 39m
Length of Day
9h 41m
Waning Gibbous, 54% of the Moon is Illuminated
Jan 4
Waning Gibbous
Jan 4
Last Quarter
Jan 11
New
Jan 18
First Quarter
Jan 26
Full

Hourly Weather History & Observations

Time (PST) Temp. Windchill Dew Point Humidity Pressure Visibility Wind Dir Wind Speed Gust Speed Precip Events Conditions
12:11 AM 35.6 °F - 33.8 °F 93% 30.27 in 2.0 mi Calm Calm - N/A   Partly Cloudy
12:19 AM 35.6 °F - 33.8 °F 93% 30.27 in 1.8 mi Calm Calm - N/A   Scattered Clouds
12:26 AM 35.6 °F - 33.8 °F 93% 30.27 in 1.2 mi Calm Calm - N/A   Mostly Cloudy
12:32 AM 35.6 °F - 33.8 °F 93% 30.27 in 0.2 mi Calm Calm - N/A Fog Fog
12:41 AM 33.8 °F - 32.0 °F 93% 30.27 in 0.2 mi Calm Calm - N/A Fog Fog
12:53 AM 33.1 °F - 30.9 °F 92% 30.27 in 0.2 mi Calm Calm - N/A Fog Fog
1:28 AM 32.0 °F - 30.2 °F 93% 30.27 in 0.2 mi Calm Calm - N/A Fog Fog
1:53 AM 32.0 °F - 30.0 °F 92% 30.27 in 0.2 mi Calm Calm - N/A Fog Fog
2:17 AM 32.0 °F - 30.2 °F 93% 30.27 in 0.5 mi Calm Calm - N/A Fog Fog
2:23 AM 32.0 °F - 30.2 °F 93% 30.27 in 1.2 mi Calm Calm - N/A   Partly Cloudy
2:53 AM 33.1 °F - 30.9 °F 92% 30.27 in 2.0 mi Calm Calm - N/A   Clear
3:06 AM 32.0 °F - 30.2 °F 93% 30.27 in 1.2 mi Calm Calm - N/A   Clear
3:53 AM 32.0 °F - 30.0 °F 92% 30.27 in 1.8 mi Calm Calm - N/A   Clear
4:13 AM 30.2 °F - 28.4 °F 93% 30.27 in 0.5 mi Calm Calm - N/A Fog Light Freezing Fog
4:23 AM 30.2 °F - 28.4 °F 93% 30.27 in 1.0 mi Calm Calm - N/A   Mist
4:32 AM 30.2 °F - 28.4 °F 93% 30.27 in 0.2 mi Calm Calm - N/A Fog Light Freezing Fog
4:45 AM 30.2 °F - 28.4 °F 93% 30.27 in 0.2 mi Calm Calm - N/A Fog Light Freezing Fog
4:53 AM 30.9 °F - 28.9 °F 92% 30.27 in 0.2 mi Calm Calm - N/A Fog Light Freezing Fog
5:35 AM 28.4 °F - 26.6 °F 93% 30.27 in 0.2 mi Calm Calm - N/A Fog Light Freezing Fog
5:53 AM 28.9 °F - 27.0 °F 92% 30.28 in 0.2 mi Calm Calm - N/A Fog Light Freezing Fog
6:03 AM 28.4 °F 24.6 °F 26.6 °F 93% 30.27 in 1.0 mi SE 3.5 mph - N/A   Mist
6:17 AM 28.4 °F - 26.6 °F 93% 30.28 in 2.0 mi Calm Calm - N/A   Mostly Cloudy
6:22 AM 28.4 °F - 28.4 °F 100% 30.27 in 1.2 mi Calm Calm - N/A   Mostly Cloudy
6:27 AM 30.2 °F 26.7 °F 28.4 °F 93% 30.27 in 0.2 mi ESE 3.5 mph - N/A Fog Light Freezing Fog
6:53 AM 30.9 °F - 28.9 °F 92% 30.29 in 0.2 mi Calm Calm - N/A Fog Light Freezing Fog
7:53 AM 32.0 °F - 30.0 °F 92% 30.31 in 0.2 mi Calm Calm - N/A Fog Fog
8:53 AM 32.0 °F 28.7 °F 32.0 °F 100% 30.32 in 0.2 mi ESE 3.5 mph - N/A Fog Fog
9:45 AM 37.4 °F 33.8 °F 37.4 °F 100% 30.33 in 1.0 mi ESE 4.6 mph - N/A   Mist
9:51 AM 39.2 °F 35.0 °F 37.4 °F 93% 30.33 in 2.5 mi SE 5.8 mph - N/A   Scattered Clouds
9:53 AM 39.0 °F 35.7 °F 37.0 °F 93% 30.33 in 3.0 mi SE 4.6 mph - N/A   Scattered Clouds
10:53 AM 44.1 °F 41.5 °F 39.9 °F 85% 30.31 in 3.0 mi SE 4.6 mph - N/A   Clear
11:53 AM 46.9 °F - 41.0 °F 80% 30.28 in 4.0 mi South 4.6 mph - N/A   Haze
12:53 PM 50.0 °F - 41.0 °F 71% 30.25 in 4.0 mi Calm Calm - N/A   Haze
1:53 PM 53.1 °F - 39.9 °F 61% 30.23 in 5.0 mi Calm Calm - N/A   Haze
2:53 PM 53.1 °F - 39.0 °F 59% 30.22 in 6.0 mi South 3.5 mph - N/A   Haze
3:53 PM 53.1 °F - 39.9 °F 61% 30.22 in 5.0 mi Calm Calm - N/A   Haze
4:53 PM 51.1 °F - 41.0 °F 68% 30.21 in 4.0 mi Calm Calm - N/A   Haze
5:53 PM 46.9 °F - 39.9 °F 77% 30.22 in 4.0 mi Calm Calm - N/A   Haze
6:53 PM 46.0 °F - 39.9 °F 79% 30.23 in 4.0 mi Calm Calm - N/A   Haze
7:53 PM 43.0 °F - 37.9 °F 82% 30.23 in 4.0 mi Calm Calm - N/A   Haze
8:53 PM 43.0 °F - 37.9 °F 82% 30.24 in 3.0 mi Calm Calm - N/A   Haze
9:13 PM 41.0 °F - 37.4 °F 87% 30.24 in 2.5 mi Calm Calm - N/A   Clear
9:25 PM 42.8 °F - 37.4 °F 81% 30.24 in 3.0 mi Calm Calm - N/A   Haze
9:53 PM 39.9 °F - 36.0 °F 86% 30.25 in 3.0 mi Calm Calm - N/A   Clear
10:53 PM 37.9 °F - 35.1 °F 89% 30.27 in 3.0 mi Calm Calm - N/A   Clear
11:06 PM 37.4 °F - 35.6 °F 93% 30.26 in 2.5 mi Calm Calm - N/A   Clear
11:53 PM 36.0 °F 32.1 °F 34.0 °F 93% 30.26 in 2.0 mi SE 4.6 mph - N/A   Clear